Flag for Czech Republic Weather past 2 weeks in Prague, Czech Republic

Now
57 °F

Sunny.


Feels Like: 56 °F
Forecast: 52 / 68 °F
Wind: 6 mph from West

Location: Prague Ruzyne Airport

Current Time: Aug 20, 2014 at 9:33:06 PM

Latest Report: Aug 20, 2014 at 9:00 PM


Visibility: 10 mi

Pressure: 29.98 "Hg

Humidity: 63%

Dew point: 45 °F

Location of PragueLocation

Historic Weather in Prague — Graph

°F

Prague temperature yesterday

Maximum temperature yesterday: 70 °F (at 4:30 PM)
Minimum temperature yesterday: 50 °F (at 2:00 AM)
Average temperature yesterday: 59 °F

Past Weeks' High & Low Weather Summary

 TemperatureHumidityPressure
High84 °F (Aug 10, 2:30 PM)100% (Aug 6, 1:30 AM)30.09 "Hg (Aug 6, 1:30 AM)
Low45 °F (Aug 20, 6:00 AM)37% (Aug 20, 5:30 PM)29.65 "Hg (Aug 13, 8:30 PM)
Average63 °F73%29.93 "Hg
* Reported Aug 5 8:00 PM — Aug 20 8:30 PM, Prague, Weather by CustomWeather, © 2014

Note: Actual official high and low records may vary slightly from our data, if they occured in-between our weather recording intervals... More about our weather records

Advertising

Prague weather history for previous 24 hours

 ConditionsComfort  
Time TempWeatherWind HumidityBarometerVisibility
8:30 PM
Aug 20
59 °FSunny.6 mph59%29.98 "Hg10 mi
8:00 PM61 °FPassing clouds.6 mph55%29.98 "HgN/A
7:30 PM61 °FSunny.8 mph55%29.98 "Hg10 mi
7:00 PM63 °FSunny.10 mph45%29.98 "Hg10 mi
6:30 PM64 °FSunny.7 mph43%29.98 "Hg10 mi
6:00 PM64 °FPassing clouds.5 mph46%29.98 "HgN/A
5:30 PM64 °FPassing clouds.6 mph37%29.98 "HgN/A
5:00 PM64 °FPassing clouds.8 mph43%29.98 "HgN/A
4:30 PM66 °FPassing clouds.5 mph40%29.98 "HgN/A
4:00 PM64 °FPassing clouds.6 mph40%29.98 "HgN/A
3:30 PM66 °FSunny.7 mph40%30.01 "Hg10 mi
3:00 PM66 °FSunny.2 mph40%30.01 "Hg10 mi
2:30 PM64 °FPassing clouds.8 mph46%30.01 "HgN/A
2:00 PM64 °FPassing clouds.9 mph46%30.01 "HgN/A
1:30 PM63 °FSunny.8 mph45%30.01 "Hg10 mi
1:00 PM63 °FScattered clouds.10 mph45%30.01 "HgN/A
12:30 PM64 °FScattered clouds.10 mph46%30.01 "HgN/A
12:00 PM61 °FScattered clouds.9 mph48%30.01 "HgN/A
11:30 AM61 °FScattered clouds.13 mph55%30.04 "HgN/A
11:00 AM57 °FScattered clouds.7 mph59%30.04 "HgN/A
10:30 AM59 °FPassing clouds.13 mph59%30.04 "HgN/A
10:00 AM57 °FPassing clouds.12 mph55%30.04 "HgN/A
9:30 AM57 °FPassing clouds.9 mph59%30.04 "HgN/A
9:00 AM55 °FSunny.12 mph67%30.01 "Hg10 mi
8:30 AM54 °FSunny.14 mph77%30.01 "Hg10 mi
8:00 AM52 °FSunny.14 mph82%30.01 "Hg10 mi
7:30 AM50 °FSunny.9 mph88%30.01 "Hg10 mi
7:00 AM48 °FSunny.9 mph87%30.01 "Hg10 mi
6:30 AM46 °FClear.10 mph87%29.98 "Hg10 mi
6:00 AM45 °FClear.9 mph93%29.98 "Hg10 mi
5:30 AM46 °FClear.10 mph87%29.98 "Hg10 mi
5:00 AM46 °FClear.7 mph87%29.98 "Hg10 mi
4:30 AM46 °FClear.8 mph87%29.98 "Hg10 mi
4:00 AM46 °FClear.6 mph87%29.98 "Hg10 mi
3:30 AM46 °FClear.8 mph93%29.95 "Hg10 mi
3:00 AM48 °FClear.8 mph87%29.95 "Hg10 mi
2:30 AM50 °FClear.8 mph82%29.95 "Hg10 mi
2:00 AM50 °FClear.8 mph82%29.95 "Hg10 mi
1:30 AM52 °FClear.3 mph82%29.95 "Hg10 mi
1:00 AM54 °FClear.7 mph77%29.95 "Hg10 mi
12:30 AM54 °FClear.9 mph82%29.95 "Hg10 mi
12:00 AM54 °FClear.10 mph82%29.92 "Hg10 mi
11:30 PM
Aug 19
55 °FClear.10 mph77%29.92 "Hg10 mi
11:00 PM57 °FClear.10 mph72%29.89 "Hg10 mi
10:30 PM59 °FClear.9 mph68%29.89 "Hg10 mi
10:00 PM61 °FPassing clouds.10 mph68%29.89 "HgN/A
9:30 PM61 °FClear.9 mph68%29.89 "Hg10 mi
9:00 PM61 °FPassing clouds.8 mph68%29.89 "HgN/A
Weather by CustomWeather, © 2014

See weather overviewHow to use our weather pages